Flag for Switzerland Weather past 2 weeks in Riehen, Basel-Stadt, Switzerland

Now
62 °F

Passing clouds.


Feels Like: 62 °F
Forecast: 53 / 68 °F
Wind: 7 mph from Northwest

Location: Bale-Mulhouse

Current Time: May 29, 2015 at 11:14:32 PM

Latest Report: May 29, 2015 at 10:00 PM


Visibility: 22 mi

Pressure: 29.89 "Hg

Humidity: 67%

Dew point: 51 °F

Location of RiehenLocation

Historic Weather in Riehen — Graph

°F

Riehen temperature yesterday

Maximum temperature yesterday: 72 °F (at 4:00 PM)
Minimum temperature yesterday: 45 °F (at 2:00 AM)
Average temperature yesterday: 62 °F

Past Weeks' High & Low Weather Summary

 TemperatureHumidityPressure
High77 °F (May 29, 5:00 PM)98% (May 16, 6:00 AM)30.35 "Hg (May 16, 6:00 AM)
Low39 °F (May 22, 5:00 AM)31% (May 29, 4:00 PM)29.75 "Hg (May 18, 8:00 PM)
Average57 °F70%30.07 "Hg
* Reported May 14 9:00 PM — May 29 9:00 PM, Riehen, Weather by CustomWeather, © 2015

Note: Actual official high and low records may vary slightly from our data, if they occured in-between our weather recording intervals... More about our weather records

Advertising

Riehen weather history for previous 24 hours

 ConditionsComfort  
Time TempWeatherWind HumidityBarometerVisibility
9:00 PM
Fri, May 29
67 °FScattered clouds.9 mph52%29.86 "Hg19 mi
8:00 PM72 °FPartly sunny.13 mph34%29.83 "Hg19 mi
7:00 PM74 °FScattered clouds.17 mph32%29.81 "Hg19 mi
6:00 PM76 °FScattered clouds.17 mph33%29.80 "Hg19 mi
5:00 PM77 °FScattered clouds.20 mph32%29.80 "Hg19 mi
4:00 PM76 °FPartly sunny.17 mph31%29.80 "Hg19 mi
3:00 PM76 °FPartly sunny.14 mph39%29.82 "Hg19 mi
2:00 PM75 °FPartly sunny.12 mph43%29.85 "Hg19 mi
1:00 PM71 °FPartly sunny.7 mph48%29.87 "Hg19 mi
12:00 PM70 °FOvercast.2 mph49%29.88 "Hg19 mi
11:00 AM67 °FOvercast.3 mph50%29.90 "Hg19 mi
10:00 AM64 °FOvercast.6 mph62%29.93 "Hg12 mi
9:00 AM60 °FOvercast.3 mph76%29.95 "Hg9 mi
8:00 AM55 °FOvercast.3 mph84%29.96 "Hg9 mi
7:00 AM53 °FLight rain. Overcast.6 mph85%29.97 "Hg9 mi
6:00 AM49 °FScattered clouds.No wind85%29.98 "Hg12 mi
5:00 AM52 °FOvercast.3 mph82%29.98 "Hg9 mi
4:00 AM50 °FCool.6 mph87%29.99 "Hg19 mi
3:00 AM48 °FCool.2 mph89%30.01 "Hg22 mi
2:00 AM50 °FCool.No wind84%30.01 "Hg31 mi
12:00 AM55 °FOvercast.2 mph77%30.01 "Hg12 mi
Weather by CustomWeather, © 2015

See weather overviewHow to use our weather pages